Weather History for Benson, MN

Change the Weather History Date:

Thursday, May 9, 2013

  Actual Average Record
Temperature  
Mean Temperature 54 °F -  
Max Temperature 62 °F 69 °F 89 °F (1987)
Min Temperature 46 °F 43 °F 6 °F (2000)
Degree Days  
Heating Degree Days 11    
Growing Degree Days 4 (Base 50)    
Moisture  
Dew Point 49 °F    
Average Humidity 81    
Maximum Humidity 100    
Minimum Humidity 62    
Precipitation  
Precipitation 0.02 in - - ()
Sea Level Pressure  
Sea Level Pressure 30.06 in    
Wind  
Wind Speed 8 mph (ENE)    
Max Wind Speed 16 mph    
Max Gust Speed 23 mph    
Visibility 10 miles    
Events Rain    
Averages and records for this station are not official NWS values.
T = Trace of Precipitation, MM = Missing Value Source: NWS Daily Summary

Daily Weather History Graph

Daily Weather History Graph

Search for Another Location

Airport:

Trip Planner

Search our weather history database for the weather conditions in past years. The results will help you decide how hot, cold, wet, or windy it might be!

Date:

Astronomy

May. 09, 2013 Rise Set
Actual Time 5:59 AM CDT 8:39 PM CDT
Civil Twilight 5:25 AM CDT 9:13 PM CDT
Nautical Twilight 4:43 AM CDT 9:55 PM CDT
Astronomical Twilight 3:54 AM CDT 10:45 PM CDT
Moon 5:46 AM CDT (5/9) 8:35 PM CDT (5/9)
Length of Visible Light 15h 47m
Length of Day
14h 39m
Waning Crescent, 0% of the Moon is Illuminated
May 9
Waning Crescent
May 9
New
May 17
First Quarter
May 24
Full
May 31
Last Quarter

Hourly Weather History & Observations

Time (CDT) Temp. Windchill Dew Point Humidity Pressure Visibility Wind Dir Wind Speed Gust Speed Precip Events Conditions
12:12 AM 55.4 °F - 53.6 °F 94% 30.03 in 7.0 mi East 5.8 mph - N/A   Drizzle
12:33 AM 55.4 °F - 53.6 °F 94% 30.03 in 10.0 mi East 4.6 mph - N/A Rain Light Rain
12:53 AM 55.4 °F - 53.6 °F 94% 30.02 in 10.0 mi East 5.8 mph - 0.01 in Rain Light Rain
1:12 AM 55.4 °F - 53.6 °F 94% 30.02 in 10.0 mi East 5.8 mph - N/A   Light Drizzle
1:33 AM 55.4 °F - 53.6 °F 94% 30.02 in 10.0 mi East 8.1 mph - N/A   Light Drizzle
1:53 AM 55.4 °F - 53.6 °F 94% 30.01 in 10.0 mi East 8.1 mph - N/A   Light Drizzle
2:12 AM 55.4 °F - 53.6 °F 94% 30.01 in 10.0 mi East 4.6 mph - N/A Rain Light Rain
2:33 AM 55.4 °F - 53.6 °F 94% 30.01 in 10.0 mi East 3.5 mph - N/A   Light Drizzle
2:52 AM 55.4 °F - 53.6 °F 94% 30.01 in 10.0 mi NE 6.9 mph - N/A Rain Light Rain
3:13 AM 53.6 °F - 53.6 °F 100% 30.01 in 10.0 mi NE 4.6 mph - N/A   Overcast
3:33 AM 53.6 °F - 53.6 °F 100% 30.01 in 10.0 mi Calm Calm - N/A   Overcast
3:52 AM 53.6 °F - 53.6 °F 100% 30.00 in 10.0 mi NE 4.6 mph - N/A   Overcast
4:33 AM 53.6 °F - 53.6 °F 100% 30.01 in 7.0 mi NNE 5.8 mph - N/A Rain Light Rain
4:52 AM 53.6 °F - 53.6 °F 100% 30.01 in 7.0 mi NNE 5.8 mph - N/A   Overcast
5:13 AM 53.6 °F - 51.8 °F 94% 30.01 in 7.0 mi NNE 8.1 mph - N/A   Drizzle
5:33 AM 53.6 °F - 51.8 °F 94% 30.01 in 7.0 mi NNE 8.1 mph - N/A   Light Drizzle
5:52 AM 53.6 °F - 51.8 °F 94% 30.01 in 10.0 mi NE 8.1 mph - N/A   Light Drizzle
6:13 AM 53.6 °F - 51.8 °F 94% 30.01 in 10.0 mi NNE 5.8 mph - N/A   Drizzle
6:33 AM 53.6 °F - 51.8 °F 94% 30.02 in 10.0 mi NE 9.2 mph - N/A Rain Rain
6:52 AM 53.6 °F - 51.8 °F 94% 30.02 in 10.0 mi NE 9.2 mph - N/A Rain Light Rain
7:13 AM 53.6 °F - 51.8 °F 94% 30.03 in 10.0 mi NE 6.9 mph - N/A   Drizzle
7:33 AM 53.6 °F - 51.8 °F 94% 30.03 in 10.0 mi NE 6.9 mph - 0.01 in   Drizzle
7:52 AM 53.6 °F - 51.8 °F 94% 30.03 in 10.0 mi NE 6.9 mph - 0.01 in   Light Drizzle
8:13 AM 53.6 °F - 51.8 °F 94% 30.04 in 10.0 mi NNE 4.6 mph - N/A Rain Light Rain
8:33 AM 53.6 °F - 51.8 °F 94% 30.05 in 10.0 mi NNE 5.8 mph - N/A Rain Light Rain
8:52 AM 53.6 °F - 50.0 °F 88% 30.05 in 10.0 mi NNE 9.2 mph - N/A Rain Light Rain
9:13 AM 53.6 °F - 50.0 °F 88% 30.06 in 10.0 mi NNE 8.1 mph - N/A Rain Light Rain
9:32 AM 51.8 °F - 48.2 °F 88% 30.06 in 10.0 mi NNE 9.2 mph - N/A Rain Light Rain
9:53 AM 51.8 °F - 48.2 °F 88% 30.06 in 10.0 mi NNE 5.8 mph - N/A   Light Drizzle
10:32 AM 51.8 °F - 48.2 °F 88% 30.07 in 10.0 mi NNE 6.9 mph - N/A   Overcast
10:53 AM 51.8 °F - 48.2 °F 88% 30.07 in 10.0 mi NNE 9.2 mph - N/A   Overcast
11:32 AM 55.4 °F - 50.0 °F 82% 30.08 in 10.0 mi NE 8.1 mph - N/A   Overcast
11:53 AM 57.2 °F - 51.8 °F 82% 30.08 in 10.0 mi NE 8.1 mph - N/A   Overcast
12:13 PM 59.0 °F - 51.8 °F 77% 30.07 in 10.0 mi NNE 6.9 mph - N/A   Overcast
12:53 PM 62.6 °F - 53.6 °F 72% 30.06 in 10.0 mi NE 6.9 mph - N/A   Mostly Cloudy
1:12 PM 62.6 °F - 53.6 °F 72% 30.06 in 10.0 mi East 6.9 mph - N/A   Overcast
1:32 PM 62.6 °F - 53.6 °F 72% 30.06 in 10.0 mi East 9.2 mph - N/A   Overcast
1:53 PM 62.6 °F - 51.8 °F 68% 30.06 in 10.0 mi East 11.5 mph - N/A   Overcast
2:12 PM 62.6 °F - 53.6 °F 72% 30.07 in 10.0 mi ESE 13.8 mph 19.6 mph N/A   Overcast
2:32 PM 62.6 °F - 51.8 °F 68% 30.07 in 10.0 mi East 15.0 mph - N/A   Mostly Cloudy
2:53 PM 62.6 °F - 51.8 °F 68% 30.07 in 10.0 mi ESE 15.0 mph - N/A   Scattered Clouds
3:12 PM 60.8 °F - 51.8 °F 72% 30.07 in 10.0 mi East 11.5 mph - N/A   Mostly Cloudy
3:33 PM 59.0 °F - 51.8 °F 77% 30.08 in 10.0 mi East 10.4 mph - N/A   Overcast
3:53 PM 59.0 °F - 50.0 °F 72% 30.08 in 10.0 mi East 12.7 mph 16.1 mph N/A   Overcast
4:12 PM 59.0 °F - 50.0 °F 72% 30.08 in 10.0 mi East 10.4 mph - N/A   Overcast
4:33 PM 60.8 °F - 50.0 °F 68% 30.07 in 10.0 mi ESE 11.5 mph 16.1 mph N/A   Overcast
4:52 PM 60.8 °F - 50.0 °F 68% 30.07 in 10.0 mi ENE 9.2 mph - N/A   Overcast
5:12 PM 60.8 °F - 50.0 °F 68% 30.06 in 10.0 mi East 10.4 mph 17.3 mph N/A   Scattered Clouds
5:33 PM 60.8 °F - 50.0 °F 68% 30.06 in 10.0 mi East 12.7 mph 16.1 mph N/A   Mostly Cloudy
5:52 PM 60.8 °F - 48.2 °F 63% 30.06 in 10.0 mi East 10.4 mph - N/A   Overcast
6:12 PM 60.8 °F - 48.2 °F 63% 30.07 in 10.0 mi ESE 15.0 mph 19.6 mph N/A   Overcast
6:33 PM 57.2 °F - 46.4 °F 67% 30.08 in 10.0 mi East 15.0 mph 19.6 mph N/A   Overcast
7:13 PM 55.4 °F - 44.6 °F 67% 30.09 in 10.0 mi ESE 15.0 mph 23.0 mph N/A   Overcast
7:33 PM 53.6 °F - 44.6 °F 72% 30.10 in 10.0 mi ESE 13.8 mph 20.7 mph N/A   Overcast
7:52 PM 53.6 °F - 44.6 °F 72% 30.10 in 10.0 mi ESE 12.7 mph - N/A   Overcast
8:13 PM 53.6 °F - 42.8 °F 67% 30.11 in 10.0 mi ESE 12.7 mph 16.1 mph N/A   Overcast
8:33 PM 51.8 °F - 42.8 °F 71% 30.12 in 10.0 mi ESE 11.5 mph 17.3 mph N/A   Overcast
8:52 PM 51.8 °F - 42.8 °F 71% 30.13 in 10.0 mi East 13.8 mph 19.6 mph N/A   Overcast
9:13 PM 51.8 °F - 41.0 °F 67% 30.14 in 10.0 mi East 16.1 mph 21.9 mph N/A   Overcast
9:33 PM 51.8 °F - 39.2 °F 62% 30.15 in 10.0 mi ESE 15.0 mph 19.6 mph N/A   Overcast
9:52 PM 50.0 °F - 39.2 °F 66% 30.16 in 10.0 mi ESE 11.5 mph 21.9 mph N/A   Overcast
10:13 PM 48.2 °F - 39.2 °F 71% 30.16 in 10.0 mi ESE 6.9 mph - N/A   Overcast
10:32 PM 48.2 °F - 39.2 °F 71% 30.16 in 10.0 mi ESE 6.9 mph - N/A   Overcast
10:53 PM 48.2 °F - 37.4 °F 66% 30.16 in 10.0 mi East 4.6 mph - N/A   Overcast
11:13 PM 46.4 °F 43.5 °F 37.4 °F 71% 30.15 in 10.0 mi ESE 5.8 mph - N/A   Mostly Cloudy
11:32 PM 46.4 °F 43.5 °F 37.4 °F 71% 30.15 in 10.0 mi East 5.8 mph - N/A   Mostly Cloudy